| time (UTC) | temp F | wind direction | speed MPH | gust MPH | rain 1hr in | rain 24hr in | rain mn in | humidity % | barometer mb |
| 20260505130116 | 75 | 128 | 5.0 | 6.0 | 0.00 | 0.00 | 0.00 | 89 | 1007.0 |
| 20260505124557 | 74 | 68 | 3.0 | 3.0 | 0.00 | 0.00 | 0.00 | 90 | 1007.0 |
| 20260505124056 | 74 | 135 | 3.0 | 3.0 | 0.00 | 0.00 | 0.00 | 90 | 1006.0 |
| 20260505123556 | 74 | 142 | 2.0 | 7.0 | 0.00 | 0.00 | 0.00 | 89 | 1006.0 |
| 20260505123057 | 74 | 101 | 2.0 | 3.0 | 0.00 | 0.00 | 0.00 | 89 | 1006.0 |
| 20260505122556 | 74 | 196 | 1.0 | 7.0 | 0.00 | 0.00 | 0.00 | 89 | 1006.0 |
| 20260505122058 | 74 | 144 | 2.0 | 5.0 | 0.00 | 0.00 | 0.00 | 89 | 1006.0 |
| 20260505121557 | 74 | 156 | 4.0 | 7.0 | 0.00 | 0.00 | 0.00 | 89 | 1006.0 |
| 20260505121056 | 74 | 101 | 1.0 | 7.0 | 0.00 | 0.00 | 0.00 | 89 | 1006.0 |
| 20260505120557 | 74 | 289 | 2.0 | 3.0 | 0.00 | 0.00 | 0.00 | 89 | 1006.0 |
| 20260505120057 | 74 | 162 | 2.0 | 5.0 | 0.00 | 0.00 | 0.00 | 89 | 1006.0 |
| 20260505115556 | 73 | 116 | 1.0 | 4.0 | 0.00 | 0.00 | 0.00 | 90 | 1007.0 |
| 20260505115056 | 73 | 150 | 2.0 | 5.0 | 0.00 | 0.00 | 0.00 | 90 | 1006.0 |
| 20260505114556 | 73 | 118 | 4.0 | 5.0 | 0.00 | 0.00 | 0.00 | 90 | 1006.0 |
| 20260505114057 | 73 | 131 | 1.0 | 2.0 | 0.00 | 0.00 | 0.00 | 90 | 1006.0 |
| 20260505113556 | 73 | 120 | 2.0 | 4.0 | 0.00 | 0.00 | 0.00 | 90 | 1006.0 |
| 20260505113056 | 73 | 201 | 2.0 | 3.0 | 0.00 | 0.00 | 0.00 | 89 | 1006.0 |
| 20260505112556 | 73 | 136 | 2.0 | 4.0 | 0.00 | 0.00 | 0.00 | 89 | 1006.0 |
| 20260505112056 | 73 | 140 | 4.0 | 5.0 | 0.00 | 0.00 | 0.00 | 89 | 1006.0 |
| 20260505111557 | 73 | 107 | 1.0 | 5.0 | 0.00 | 0.00 | 0.00 | 89 | 1006.0 |
| 20260505111056 | 73 | 153 | 4.0 | 8.0 | 0.00 | 0.00 | 0.00 | 89 | 1006.0 |
| 20260505110556 | 73 | 82 | 3.0 | 5.0 | 0.00 | 0.00 | 0.00 | 89 | 1006.0 |
| 20260505102057 | 73 | 126 | 1.0 | 5.0 | 0.00 | 0.00 | 0.00 | 88 | 1006.0 |
| 20260505101557 | 73 | 74 | 0.0 | 3.0 | 0.00 | 0.00 | 0.00 | 88 | 1006.0 |
| 20260505101056 | 73 | 202 | 2.0 | 6.0 | 0.00 | 0.00 | 0.00 | 88 | 1006.0 |
| 20260505100556 | 73 | 86 | 0.0 | 3.0 | 0.00 | 0.00 | 0.00 | 88 | 1006.0 |
| 20260505100056 | 73 | 153 | 4.0 | 7.0 | 0.00 | 0.00 | 0.00 | 88 | 1006.0 |
| 20260505095558 | 73 | 100 | 0.0 | 8.0 | 0.00 | 0.00 | 0.00 | 88 | 1006.0 |
| 20260505095059 | 73 | 132 | 2.0 | 5.0 | 0.00 | 0.00 | 0.00 | 88 | 1006.0 |
| 20260505094556 | 73 | 169 | 4.0 | 5.0 | 0.00 | 0.00 | 0.00 | 88 | 1006.0 |
| 20260505094056 | 73 | 133 | 4.0 | 5.0 | 0.00 | 0.00 | 0.00 | 88 | 1006.0 |
| 20260505093556 | 73 | 138 | 3.0 | 4.0 | 0.00 | 0.00 | 0.00 | 88 | 1007.0 |
| 20260505093057 | 73 | 155 | 2.0 | 4.0 | 0.00 | 0.00 | 0.00 | 88 | 1007.0 |
| 20260505092556 | 73 | 133 | 1.0 | 3.0 | 0.00 | 0.00 | 0.00 | 88 | 1007.0 |
| 20260505092056 | 73 | 123 | 2.0 | 4.0 | 0.00 | 0.00 | 0.00 | 88 | 1006.0 |
| 20260505091556 | 73 | 108 | 1.0 | 4.0 | 0.00 | 0.00 | 0.00 | 88 | 1006.0 |
| 20260505090610 | 73 | 233 | 1.0 | 6.0 | 0.00 | 0.00 | 0.00 | 88 | 1006.0 |
| 20260505090057 | 73 | 97 | 3.0 | 4.0 | 0.00 | 0.00 | 0.00 | 88 | 1007.0 |
| 20260505085556 | 73 | 150 | 0.0 | 5.0 | 0.00 | 0.00 | 0.00 | 88 | 1006.0 |
| 20260505085056 | 72 | 114 | 3.0 | 4.0 | 0.00 | 0.00 | 0.00 | 88 | 1007.0 |
| 20260505084556 | 72 | 150 | 4.0 | 4.0 | 0.00 | 0.00 | 0.00 | 88 | 1007.0 |
| 20260505084056 | 73 | 81 | 3.0 | 3.0 | 0.00 | 0.00 | 0.00 | 88 | 1006.0 |
| 20260505083557 | 73 | 136 | 4.0 | 4.0 | 0.00 | 0.00 | 0.00 | 88 | 1006.0 |
| 20260505083057 | 73 | 163 | 2.0 | 4.0 | 0.00 | 0.00 | 0.00 | 87 | 1007.0 |
| 20260505082557 | 73 | 165 | 2.0 | 4.0 | 0.00 | 0.00 | 0.00 | 87 | 1007.0 |
| 20260505082058 | 73 | 267 | 1.0 | 4.0 | 0.00 | 0.00 | 0.00 | 87 | 1007.0 |
| 20260505081557 | 73 | 139 | 3.0 | 5.0 | 0.00 | 0.00 | 0.00 | 87 | 1007.0 |
| 20260505081058 | 73 | 107 | 0.0 | 5.0 | 0.00 | 0.00 | 0.00 | 87 | 1007.0 |
| 20260505080556 | 73 | 127 | 3.0 | 5.0 | 0.00 | 0.00 | 0.00 | 87 | 1007.0 |
| 20260505080057 | 72 | 152 | 3.0 | 5.0 | 0.00 | 0.00 | 0.00 | 87 | 1007.0 |
| 20260505075556 | 72 | 113 | 5.0 | 6.0 | 0.00 | 0.00 | 0.00 | 88 | 1007.0 |
| 20260505075057 | 72 | 161 | 1.0 | 3.0 | 0.00 | 0.00 | 0.00 | 88 | 1007.0 |
| 20260505074222 | 72 | 119 | 3.0 | 4.0 | 0.00 | 0.00 | 0.00 | 88 | 1007.0 |
| 20260505073557 | 72 | 107 | 0.0 | 3.0 | 0.00 | 0.00 | 0.00 | 88 | 1007.0 |
| 20260505073057 | 72 | 67 | 2.0 | 4.0 | 0.00 | 0.00 | 0.00 | 88 | 1007.0 |
| 20260505072556 | 72 | 150 | 4.0 | 4.0 | 0.00 | 0.00 | 0.00 | 88 | 1007.0 |
| 20260505072057 | 71 | 281 | 0.0 | 6.0 | 0.00 | 0.00 | 0.00 | 88 | 1007.0 |
| 20260505071556 | 71 | 134 | 1.0 | 5.0 | 0.00 | 0.00 | 0.00 | 88 | 1007.0 |
| 20260505071057 | 71 | 101 | 2.0 | 3.0 | 0.00 | 0.00 | 0.00 | 88 | 1007.0 |
| 20260505070556 | 71 | 113 | 0.0 | 4.0 | 0.00 | 0.00 | 0.00 | 88 | 1007.0 |
| 20260505070058 | 71 | 79 | 3.0 | 4.0 | 0.00 | 0.00 | 0.00 | 88 | 1007.0 |
| 20260505065557 | 71 | 122 | 3.0 | 4.0 | 0.00 | 0.00 | 0.00 | 89 | 1007.0 |
| 20260505065056 | 71 | 108 | 3.0 | 5.0 | 0.00 | 0.00 | 0.00 | 89 | 1007.0 |
| 20260505064556 | 70 | 161 | 4.0 | 4.0 | 0.00 | 0.00 | 0.00 | 89 | 1008.0 |
| 20260505064057 | 70 | 75 | 1.0 | 3.0 | 0.00 | 0.00 | 0.00 | 89 | 1007.0 |
| 20260505063557 | 70 | 172 | 2.0 | 4.0 | 0.00 | 0.00 | 0.00 | 88 | 1008.0 |
| 20260505063057 | 70 | 266 | 0.0 | 3.0 | 0.00 | 0.00 | 0.00 | 88 | 1008.0 |
| 20260505062556 | 70 | 135 | 5.0 | 5.0 | 0.00 | 0.00 | 0.00 | 88 | 1008.0 |
| 20260505062056 | 70 | 93 | 2.0 | 4.0 | 0.00 | 0.00 | 0.00 | 88 | 1008.0 |
| 20260505061557 | 70 | 39 | 3.0 | 4.0 | 0.00 | 0.00 | 0.00 | 88 | 1008.0 |
| 20260505061056 | 70 | 133 | 4.0 | 6.0 | 0.00 | 0.00 | 0.00 | 88 | 1008.0 |
| 20260505060557 | 70 | 74 | 1.0 | 4.0 | 0.00 | 0.00 | 0.00 | 88 | 1008.0 |
| 20260505060056 | 70 | 98 | 3.0 | 4.0 | 0.00 | 0.00 | 0.00 | 88 | 1008.0 |
| 20260505055557 | 70 | 182 | 1.0 | 5.0 | 0.00 | 0.00 | 0.00 | 88 | 1008.0 |
| 20260505055056 | 70 | 119 | 0.0 | 4.0 | 0.00 | 0.00 | 0.00 | 88 | 1008.0 |
| 20260505054557 | 70 | 116 | 1.0 | 2.0 | 0.00 | 0.00 | 0.00 | 88 | 1008.0 |
| 20260505054056 | 70 | 132 | 1.0 | 1.0 | 0.00 | 0.00 | 0.00 | 88 | 1008.0 |
| 20260505053557 | 70 | 135 | 0.0 | 2.0 | 0.00 | 0.00 | 0.00 | 87 | 1008.0 |
| 20260505053056 | 70 | 147 | 0.0 | 2.0 | 0.00 | 0.00 | 0.00 | 87 | 1008.0 |
| 20260505052556 | 70 | 108 | 1.0 | 2.0 | 0.00 | 0.00 | 0.00 | 87 | 1008.0 |
| 20260505052058 | 70 | 102 | 1.0 | 2.0 | 0.00 | 0.00 | 0.00 | 87 | 1008.0 |
| 20260505051556 | 70 | 106 | 0.0 | 3.0 | 0.00 | 0.00 | 0.00 | 86 | 1008.0 |
| 20260505051056 | 70 | 93 | 1.0 | 4.0 | 0.00 | 0.00 | 0.00 | 86 | 1008.0 |
| 20260505050556 | 71 | 128 | 3.0 | 3.0 | 0.00 | 0.00 | 0.00 | 86 | 1008.0 |
| 20260505041556 | 71 | 117 | 2.0 | 4.0 | 0.00 | 0.00 | 0.00 | 84 | 1009.0 |
| 20260505041056 | 71 | 83 | 1.0 | 3.0 | 0.00 | 0.00 | 0.00 | 83 | 1008.0 |
| 20260505040556 | 71 | 101 | 1.0 | 3.0 | 0.00 | 0.00 | 0.00 | 83 | 1008.0 |
| 20260505040056 | 71 | 112 | 2.0 | 3.0 | 0.00 | 0.00 | 0.00 | 83 | 1009.0 |
| 20260505035556 | 71 | 124 | 2.0 | 5.0 | 0.00 | 0.00 | 0.00 | 83 | 1009.0 |
| 20260505035057 | 71 | 89 | 2.0 | 4.0 | 0.00 | 0.00 | 0.00 | 82 | 1009.0 |
| 20260505034556 | 71 | 83 | 1.0 | 3.0 | 0.00 | 0.00 | 0.00 | 82 | 1009.0 |
| 20260505034056 | 71 | 104 | 1.0 | 2.0 | 0.00 | 0.00 | 0.00 | 82 | 1009.0 |
| 20260505033556 | 71 | 130 | 0.0 | 3.0 | 0.00 | 0.00 | 0.00 | 81 | 1009.0 |
| 20260505033056 | 71 | 121 | 3.0 | 3.0 | 0.00 | 0.00 | 0.00 | 81 | 1009.0 |
| 20260505032556 | 72 | 127 | 2.0 | 3.0 | 0.00 | 0.00 | 0.00 | 81 | 1009.0 |
| 20260505032056 | 72 | 130 | 1.0 | 5.0 | 0.00 | 0.00 | 0.00 | 81 | 1009.0 |
| 20260505031556 | 72 | 123 | 2.0 | 3.0 | 0.00 | 0.00 | 0.00 | 80 | 1009.0 |
| 20260505031056 | 72 | 137 | 1.0 | 5.0 | 0.00 | 0.00 | 0.00 | 80 | 1009.0 |
| 20260505030556 | 72 | 132 | 4.0 | 5.0 | 0.00 | 0.00 | 0.00 | 79 | 1009.0 |
| 20260505030056 | 72 | 142 | 3.0 | 8.0 | 0.00 | 0.00 | 0.00 | 79 | 1009.0 |
| 20260505025556 | 72 | 39 | 1.0 | 3.0 | 0.00 | 0.00 | 0.00 | 79 | 1009.0 |
| 20260505025056 | 73 | 124 | 3.0 | 8.0 | 0.00 | 0.00 | 0.00 | 78 | 1009.0 |
| 20260505024558 | 73 | 147 | 1.0 | 8.0 | 0.00 | 0.00 | 0.00 | 78 | 1009.0 |
| 20260505024056 | 73 | 111 | 2.0 | 6.0 | 0.00 | 0.00 | 0.00 | 78 | 1009.0 |
| 20260505023557 | 73 | 126 | 0.0 | 5.0 | 0.00 | 0.00 | 0.00 | 77 | 1009.0 |
| 20260505023056 | 73 | 128 | 3.0 | 5.0 | 0.00 | 0.00 | 0.00 | 77 | 1009.0 |
| 20260505022557 | 73 | 138 | 5.0 | 6.0 | 0.00 | 0.00 | 0.00 | 77 | 1009.0 |
| 20260505022057 | 73 | 118 | 5.0 | 8.0 | 0.00 | 0.00 | 0.00 | 76 | 1009.0 |
| 20260505021556 | 73 | 143 | 5.0 | 8.0 | 0.00 | 0.00 | 0.00 | 76 | 1009.0 |
| 20260505021056 | 73 | 118 | 5.0 | 6.0 | 0.00 | 0.00 | 0.00 | 76 | 1009.0 |
| 20260505020556 | 74 | 121 | 2.0 | 8.0 | 0.00 | 0.00 | 0.00 | 76 | 1008.0 |
| 20260505020057 | 74 | 161 | 4.0 | 9.0 | 0.00 | 0.00 | 0.00 | 75 | 1008.0 |
| 20260505015557 | 74 | 210 | 2.0 | 4.0 | 0.00 | 0.00 | 0.00 | 75 | 1009.0 |
| 20260505015056 | 74 | 122 | 7.0 | 11.0 | 0.00 | 0.00 | 0.00 | 75 | 1008.0 |
| 20260505014556 | 74 | 138 | 3.0 | 7.0 | 0.00 | 0.00 | 0.00 | 75 | 1008.0 |
| 20260505014056 | 74 | 116 | 6.0 | 11.0 | 0.00 | 0.00 | 0.00 | 75 | 1008.0 |
| 20260505013600 | 74 | 131 | 3.0 | 6.0 | 0.00 | 0.00 | 0.00 | 75 | 1008.0 |
| 20260505013056 | 74 | 101 | 2.0 | 9.0 | 0.00 | 0.00 | 0.00 | 75 | 1008.0 |
| 20260505012559 | 74 | 132 | 2.0 | 8.0 | 0.00 | 0.00 | 0.00 | 75 | 1008.0 |
| 20260505012057 | 74 | 156 | 2.0 | 14.0 | 0.00 | 0.00 | 0.00 | 75 | 1008.0 |
| 20260505011559 | 74 | 115 | 4.0 | 8.0 | 0.00 | 0.00 | 0.00 | 74 | 1008.0 |
| 20260505011056 | 74 | 131 | 3.0 | 6.0 | 0.00 | 0.00 | 0.00 | 74 | 1008.0 |
| 20260505010556 | 74 | 132 | 4.0 | 9.0 | 0.00 | 0.00 | 0.00 | 74 | 1008.0 |
| 20260505010057 | 74 | 124 | 7.0 | 9.0 | 0.00 | 0.00 | 0.00 | 74 | 1008.0 |
| 20260505005556 | 74 | 124 | 2.0 | 6.0 | 0.00 | 0.00 | 0.00 | 73 | 1008.0 |
| 20260505005056 | 75 | 173 | 1.0 | 7.0 | 0.00 | 0.00 | 0.00 | 73 | 1008.0 |
| 20260505004556 | 75 | 161 | 0.0 | 7.0 | 0.00 | 0.00 | 0.00 | 72 | 1008.0 |
| 20260505004057 | 75 | 120 | 10.0 | 11.0 | 0.00 | 0.00 | 0.00 | 72 | 1008.0 |
| 20260505003559 | 75 | 150 | 5.0 | 16.0 | 0.00 | 0.00 | 0.00 | 71 | 1008.0 |
| 20260505003056 | 75 | 128 | 7.0 | 11.0 | 0.00 | 0.00 | 0.00 | 71 | 1008.0 |
| 20260505002556 | 75 | 130 | 6.0 | 10.0 | 0.00 | 0.00 | 0.00 | 71 | 1008.0 |
| 20260505002058 | 75 | 146 | 4.0 | 13.0 | 0.00 | 0.00 | 0.00 | 71 | 1008.0 |
| 20260505001556 | 76 | 146 | 5.0 | 13.0 | 0.00 | 0.00 | 0.00 | 70 | 1008.0 |
| 20260505001056 | 76 | 136 | 5.0 | 12.0 | 0.00 | 0.00 | 0.00 | 70 | 1008.0 |
| 20260505000558 | 76 | 119 | 9.0 | 11.0 | 0.00 | 0.00 | 0.00 | 69 | 1008.0 |
| 20260505000056 | 76 | 145 | 2.0 | 11.0 | 0.00 | 0.00 | 0.00 | 69 | 1008.0 |
| 20260504235556 | 76 | 144 | 3.0 | 11.0 | 0.00 | 0.00 | 0.00 | 69 | 1008.0 |
| 20260504235056 | 77 | 147 | 4.0 | 17.0 | 0.00 | 0.00 | 0.00 | 68 | 1008.0 |
| 20260504234556 | 77 | 128 | 11.0 | 17.0 | 0.00 | 0.00 | 0.00 | 68 | 1008.0 |
| 20260504234057 | 77 | 136 | 8.0 | 10.0 | 0.00 | 0.00 | 0.00 | 68 | 1008.0 |
| 20260504233556 | 76 | 189 | 1.0 | 6.0 | 0.00 | 0.00 | 0.00 | 69 | 1008.0 |
| 20260504233056 | 76 | 120 | 10.0 | 11.0 | 0.00 | 0.00 | 0.00 | 69 | 1009.0 |
| 20260504232557 | 76 | 116 | 2.0 | 13.0 | 0.00 | 0.00 | 0.00 | 69 | 1009.0 |
| 20260504232056 | 76 | 114 | 13.0 | 16.0 | 0.00 | 0.00 | 0.00 | 68 | 1009.0 |
| 20260504231557 | 77 | 168 | 5.0 | 16.0 | 0.00 | 0.00 | 0.00 | 68 | 1009.0 |
| 20260504231057 | 77 | 148 | 4.0 | 11.0 | 0.00 | 0.00 | 0.00 | 68 | 1009.0 |
| 20260504230556 | 77 | 128 | 16.0 | 17.0 | 0.00 | 0.00 | 0.00 | 67 | 1009.0 |
| 20260504230056 | 77 | 116 | 8.0 | 11.0 | 0.00 | 0.00 | 0.00 | 68 | 1009.0 |
| 20260504225557 | 77 | 135 | 6.0 | 13.0 | 0.00 | 0.00 | 0.00 | 67 | 1009.0 |
| 20260504225057 | 77 | 124 | 9.0 | 13.0 | 0.00 | 0.00 | 0.00 | 67 | 1009.0 |
| 20260504224556 | 77 | 138 | 8.0 | 15.0 | 0.00 | 0.00 | 0.00 | 67 | 1009.0 |
| 20260504224056 | 77 | 132 | 13.0 | 14.0 | 0.00 | 0.00 | 0.00 | 67 | 1009.0 |
| 20260504223557 | 77 | 121 | 13.0 | 19.0 | 0.00 | 0.00 | 0.00 | 67 | 1009.0 |
| 20260504223057 | 77 | 142 | 4.0 | 11.0 | 0.00 | 0.00 | 0.00 | 67 | 1009.0 |
| 20260504222556 | 77 | 210 | 2.0 | 17.0 | 0.00 | 0.00 | 0.00 | 67 | 1009.0 |
| 20260504222056 | 77 | 133 | 10.0 | 16.0 | 0.00 | 0.00 | 0.00 | 66 | 1009.0 |
| 20260504221556 | 77 | 156 | 3.0 | 7.0 | 0.00 | 0.00 | 0.00 | 66 | 1009.0 |
| 20260504221057 | 77 | 150 | 4.0 | 9.0 | 0.00 | 0.00 | 0.00 | 66 | 1009.0 |
| 20260504220556 | 77 | 129 | 8.0 | 11.0 | 0.00 | 0.00 | 0.00 | 66 | 1009.0 |
| 20260504220056 | 77 | 123 | 9.0 | 12.0 | 0.00 | 0.00 | 0.00 | 66 | 1009.0 |
| 20260504215556 | 77 | 126 | 9.0 | 11.0 | 0.00 | 0.00 | 0.00 | 66 | 1009.0 |
| 20260504215056 | 77 | 121 | 7.0 | 17.0 | 0.00 | 0.00 | 0.00 | 65 | 1009.0 |
| 20260504214556 | 77 | 142 | 8.0 | 13.0 | 0.00 | 0.00 | 0.00 | 65 | 1010.0 |
| 20260504214057 | 78 | 130 | 8.0 | 15.0 | 0.00 | 0.00 | 0.00 | 65 | 1010.0 |
| 20260504213558 | 78 | 176 | 0.0 | 5.0 | 0.00 | 0.00 | 0.00 | 64 | 1010.0 |
| 20260504213056 | 78 | 147 | 6.0 | 15.0 | 0.00 | 0.00 | 0.00 | 64 | 1010.0 |
| 20260504212556 | 78 | 131 | 8.0 | 9.0 | 0.00 | 0.00 | 0.00 | 63 | 1010.0 |
| 20260504212057 | 78 | 105 | 8.0 | 14.0 | 0.00 | 0.00 | 0.00 | 63 | 1010.0 |
| 20260504211556 | 79 | 119 | 7.0 | 16.0 | 0.00 | 0.00 | 0.00 | 63 | 1010.0 |
| 20260504211056 | 79 | 91 | 2.0 | 5.0 | 0.00 | 0.00 | 0.00 | 62 | 1010.0 |
| 20260504210556 | 79 | 169 | 1.0 | 8.0 | 0.00 | 0.00 | 0.00 | 62 | 1010.0 |
| 20260504210056 | 79 | 153 | 3.0 | 13.0 | 0.00 | 0.00 | 0.00 | 62 | 1010.0 |
| 20260504205556 | 79 | 149 | 5.0 | 6.0 | 0.00 | 0.00 | 0.00 | 61 | 1010.0 |
| 20260504205057 | 80 | 144 | 8.0 | 15.0 | 0.00 | 0.00 | 0.00 | 61 | 1010.0 |
| 20260504204556 | 79 | 200 | 0.0 | 15.0 | 0.00 | 0.00 | 0.00 | 62 | 1010.0 |
| 20260504204056 | 79 | 135 | 5.0 | 8.0 | 0.00 | 0.00 | 0.00 | 61 | 1010.0 |
| 20260504203556 | 80 | 121 | 8.0 | 14.0 | 0.00 | 0.00 | 0.00 | 60 | 1010.0 |
| 20260504203056 | 80 | 161 | 4.0 | 14.0 | 0.00 | 0.00 | 0.00 | 60 | 1010.0 |
| 20260504202556 | 79 | 151 | 4.0 | 11.0 | 0.00 | 0.00 | 0.00 | 61 | 1010.0 |
| 20260504202056 | 79 | 98 | 9.0 | 11.0 | 0.00 | 0.00 | 0.00 | 60 | 1010.0 |
| 20260504201557 | 79 | 115 | 6.0 | 9.0 | 0.00 | 0.00 | 0.00 | 61 | 1010.0 |
| 20260504201058 | 80 | 119 | 17.0 | 19.0 | 0.00 | 0.00 | 0.00 | 60 | 1010.0 |
| 20260504200556 | 79 | 167 | 3.0 | 15.0 | 0.00 | 0.00 | 0.00 | 61 | 1010.0 |
| 20260504200056 | 79 | 162 | 5.0 | 15.0 | 0.00 | 0.00 | 0.00 | 60 | 1010.0 |
| 20260504195558 | 79 | 108 | 10.0 | 15.0 | 0.00 | 0.00 | 0.00 | 59 | 1011.0 |
| 20260504195056 | 80 | 126 | 10.0 | 15.0 | 0.00 | 0.00 | 0.00 | 58 | 1011.0 |
| 20260504194556 | 80 | 161 | 0.0 | 8.0 | 0.00 | 0.00 | 0.00 | 58 | 1010.0 |
| 20260504194057 | 81 | 223 | 2.0 | 8.0 | 0.00 | 0.00 | 0.00 | 57 | 1011.0 |
| 20260504193556 | 80 | 150 | 8.0 | 11.0 | 0.00 | 0.00 | 0.00 | 59 | 1011.0 |
| 20260504193057 | 80 | 135 | 8.0 | 11.0 | 0.00 | 0.00 | 0.00 | 58 | 1011.0 |
| 20260504192556 | 80 | 148 | 4.0 | 13.0 | 0.00 | 0.00 | 0.00 | 58 | 1011.0 |
| 20260504192056 | 80 | 151 | 4.0 | 10.0 | 0.00 | 0.00 | 0.00 | 58 | 1011.0 |
| 20260504191557 | 80 | 140 | 7.0 | 13.0 | 0.00 | 0.00 | 0.00 | 59 | 1011.0 |
| 20260504191056 | 80 | 117 | 5.0 | 10.0 | 0.00 | 0.00 | 0.00 | 58 | 1011.0 |
| 20260504190556 | 80 | 129 | 1.0 | 13.0 | 0.00 | 0.00 | 0.00 | 58 | 1011.0 |
| 20260504190057 | 80 | 142 | 5.0 | 7.0 | 0.00 | 0.00 | 0.00 | 58 | 1012.0 |
| 20260504185557 | 80 | 253 | 3.0 | 10.0 | 0.00 | 0.00 | 0.00 | 57 | 1012.0 |
| 20260504185056 | 80 | 145 | 4.0 | 6.0 | 0.00 | 0.00 | 0.00 | 56 | 1012.0 |
| 20260504184556 | 80 | 180 | 2.0 | 9.0 | 0.00 | 0.00 | 0.00 | 57 | 1012.0 |
| 20260504184056 | 80 | 222 | 3.0 | 5.0 | 0.00 | 0.00 | 0.00 | 56 | 1012.0 |
| 20260504183556 | 79 | 125 | 11.0 | 13.0 | 0.00 | 0.00 | 0.00 | 57 | 1011.0 |
| 20260504183057 | 80 | 130 | 7.0 | 15.0 | 0.00 | 0.00 | 0.00 | 57 | 1012.0 |
| 20260504182557 | 80 | 124 | 4.0 | 4.0 | 0.00 | 0.00 | 0.00 | 57 | 1012.0 |
| 20260504182056 | 81 | 127 | 15.0 | 17.0 | 0.00 | 0.00 | 0.00 | 54 | 1012.0 |
| 20260504181556 | 80 | 214 | 3.0 | 9.0 | 0.00 | 0.00 | 0.00 | 55 | 1012.0 |
| 20260504181057 | 80 | 115 | 7.0 | 11.0 | 0.00 | 0.00 | 0.00 | 55 | 1012.0 |
| 20260504180557 | 80 | 144 | 4.0 | 9.0 | 0.00 | 0.00 | 0.00 | 56 | 1012.0 |
| 20260504180056 | 80 | 146 | 7.0 | 9.0 | 0.00 | 0.00 | 0.00 | 55 | 1012.0 |
| 20260504175556 | 80 | 123 | 7.0 | 10.0 | 0.00 | 0.00 | 0.00 | 56 | 1012.0 |
| 20260504175057 | 80 | 164 | 2.0 | 13.0 | 0.00 | 0.00 | 0.00 | 56 | 1012.0 |
| 20260504174556 | 80 | 157 | 2.0 | 18.0 | 0.00 | 0.00 | 0.00 | 55 | 1012.0 |
| 20260504174056 | 81 | 121 | 7.0 | 17.0 | 0.00 | 0.00 | 0.00 | 52 | 1012.0 |
| 20260504173556 | 81 | 193 | 1.0 | 7.0 | 0.00 | 0.00 | 0.00 | 53 | 1012.0 |
| 20260504173057 | 80 | 189 | 5.0 | 5.0 | 0.00 | 0.00 | 0.00 | 52 | 1012.0 |
| 20260504172556 | 80 | 174 | 6.0 | 7.0 | 0.00 | 0.00 | 0.00 | 52 | 1013.0 |
| 20260504172057 | 80 | 142 | 3.0 | 9.0 | 0.00 | 0.00 | 0.00 | 53 | 1012.0 |
| 20260504171557 | 80 | 177 | 4.0 | 12.0 | 0.00 | 0.00 | 0.00 | 54 | 1013.0 |
| 20260504171106 | 80 | 151 | 5.0 | 6.0 | 0.00 | 0.00 | 0.00 | 53 | 1013.0 |
| 20260504170556 | 79 | 159 | 3.0 | 10.0 | 0.00 | 0.00 | 0.00 | 55 | 1013.0 |
| 20260504151057 | 76 | 155 | 2.0 | 5.0 | 0.00 | 0.00 | 0.00 | 64 | 1014.0 |
| 20260504150557 | 76 | 143 | 10.0 | 14.0 | 0.00 | 0.00 | 0.00 | 63 | 1013.0 |
| 20260504141057 | 73 | 79 | 1.0 | 3.0 | 0.00 | 0.00 | 0.00 | 66 | 1013.0 |
| 20260504140600 | 73 | 112 | 3.0 | 6.0 | 0.00 | 0.00 | 0.00 | 66 | 1013.0 |